CZ-6A DEB

Satellite information

Favourite Embed

Satellite Type and Status

DEBRISIN ORBIT

Key statistics

Satellite CZ-6A DEB at a glance.

Uptime

969

Days in orbit

Revolutions

≈ 14.1

Per day

Orbit

SSO

Sun Synchronous Orbit

Inclination

98.8

Latest

Satellite identification and parameters

Extended collection of information and parameters for CZ-6A DEB.

Object identification

Identified? True

Debris? True

Object name: CZ-6A DEB

International designator: 2022-151AJ

Object number (NORAD): 54291

Object ID (CCSDS): 54291

Country: PEOPLES REPUBLIC OF CHINA (PRC)

Current information (Y/N): Y

RCS size: SMALL

Orbital parameters

Period: 102.447 minutes

Inclination: 98.8366 deg

SMA: 7252.6 km

Apoapsis: 932.593 km

Periapsis: 816.338 km

RAAN: 181.2028 deg

Eccentricy: 0.0080147

Argument of periapsis: 206.2326 deg

Mean anomaly: 153.4773 deg

Mean motion: 14.05601312 rev/day

Mean motion (dot): 0.0000032 rev/day2

B* drag term: 0.00021715 1/REarth

Two-line elements (TLE)

Creation date: July 5, 2025, 10:46 p.m.

Reference frame: TEME

Reference center: EARTH

Epoch: July 5, 2025, 9:45 p.m. UTC

TLE line 0: 0 CZ-6A DEB

TLE line 1: 1 54291U 22151AJ 25186.90660271 .00000320 00000-0 21715-3 0 9999

TLE line 2: 2 54291 98.8366 181.2028 0080147 206.2326 153.4773 14.05601312135244

Live tracking on map

Real-time ground track for satellite CZ-6A DEB.

In-orbit conjunctions

A list of the most updated potential collisions computed for object CZ-6A DEB.

Target Orbit TCA Probability of collision Miss distance Type
SL-16 R/B LEO 2025-02-01 21:43:56 0.0001820205 60.0 (m) ROCKET BODY
DELTA 1 DEB SSO 2024-11-11 19:30:50 0.000147396 233.0 (m) DEBRIS
COSMOS 1275 DEB LEO 2024-09-02 20:57:59 0.0001143215 121.0 (m) DEBRIS

Associated space launch

Chinese satellite reported for atmospheric/ocean/environmental/spatial parameter research purposes, details TBD.

CZ-6A DEB was lifted into orbit during the mission ‘Long March 6A | Yunhai 3’, on board a Long March 6A space rocket.

The launch took place on Nov. 11, 2022, 10:52 p.m. from Launch Complex 9A.

For more information about the launch, click the button.

Launch to space Long March 6A | Yunhai 3
Long March 6A | Yunhai 3

Agency: N/A

Status: Launch Successful

Launch date: Nov. 11, 2022, 10:52 p.m. UTC

Rocket: Long March 6A

Launch pad: Launch Complex 9A

Location: Taiyuan Satellite Launch Center, People's Republic of China

...

Latest news about this satellite

There are no fresh news available about this satellite. Check back as we update our databases every day.


Newsletter sign-up

Weekly statistics, charts and insights to help you stay on top of the space industry.